Home > Weather > Ponce > Past weeks

Flag for Puerto Rico Past Weather in Ponce, Puerto Rico — Yesterday and Last 2 Weeks

Now
88 °F

Scattered clouds.


Feels Like: 98 °F
Forecast: 77 / 91 °F
Wind: 15 mph from East

Location: Aquadilla / Borinquen

Current Time: Jul 25, 2016 at 1:54:30 PM

Latest Report: Jul 25, 2016 at 12:50 PM


Visibility: 10 mi

Pressure: 30.04 "Hg

Humidity: 66%

Dew Point: 75 °F

Location of PonceLocation

Past Weather in Ponce — Graph

°F

Ponce Temperature Yesterday

Maximum temperature yesterday: 88 °F (at 12:50 PM)
Minimum temperature yesterday: 73 °F (at 5:50 AM)
Average temperature yesterday: 79 °F

High & Low Weather Summary for the Past Weeks

 TemperatureHumidityPressure
High88 °F (Jul 10, 12:50 PM)94% (Jul 10, 4:50 PM)30.13 "Hg (Jul 10, 4:50 PM)
Low73 °F (Jul 16, 6:50 AM)62% (Jul 12, 11:50 AM)29.96 "Hg (Jul 18, 5:50 PM)
Average82 °F79%30.04 "Hg
* Reported Jul 10 12:50 PM — Jul 25 11:50 AM, Ponce, Weather by CustomWeather, © 2016

Note: Actual official high and low records may vary slightly from our data, if they occured in-between our weather recording intervals... More about our weather records

Advertising

Ponce Weather History for the Previous 24 Hours

Scroll right to see more
 ConditionsComfort  
Time TempWeatherWind HumidityBarometerVisibility
11:50 AM
Mon, Jul 25
88 °FScattered clouds.17 mph66%30.05 "Hg10 mi
10:50 AM86 °FSunny.17 mph70%30.05 "Hg10 mi
9:50 AM84 °FSunny.14 mph70%30.05 "Hg10 mi
8:50 AM82 °FScattered clouds.13 mph70%30.04 "Hg10 mi
7:50 AM79 °FSunny.7 mph79%30.04 "Hg10 mi
6:50 AM75 °FClear.3 mph89%30.02 "Hg10 mi
12:50 AM75 °FPassing clouds.5 mph89%30.03 "Hg10 mi
11:50 PM
Sun, Jul 24
75 °FClear.3 mph89%30.04 "Hg10 mi
10:50 PM77 °FClear.6 mph89%30.03 "Hg10 mi
9:50 PM77 °FClear.3 mph89%30.05 "Hg10 mi
8:50 PM77 °FClear.No wind83%30.03 "Hg10 mi
7:50 PM77 °FSunny.No wind83%30.02 "Hg10 mi
6:50 PM79 °FSunny.No wind84%30.02 "Hg10 mi
5:50 PM79 °FScattered clouds.No wind84%30.00 "Hg10 mi
4:50 PM77 °FScattered clouds.3 mph83%29.99 "Hg10 mi
3:50 PM75 °FThunderstorms. Mostly cloudy.5 mph89%30.00 "Hg10 mi
2:50 PM81 °FMostly cloudy.12 mph70%30.01 "Hg10 mi
1:50 PM88 °FSunny.8 mph66%30.00 "Hg10 mi
Weather by CustomWeather, © 2016

See weather overviewHow to use our weather pages